Tracking 23885 objects as of 28-Nov-2021
HD Live streaming from Space Station
objects crossing your sky now

SPACEBEE-26

Track SPACEBEE-26 now!
10-day predictions


NORAD ID: 46956
Int'l Code: 2020-085AD
Perigee: 486.4 km
Apogee: 506.0 km
Inclination: 97.4 °
Period: 94.4 minutes
Semi major axis: 6867 km
RCS: Unknown
Launch date: November 20, 2020
Source: United States (US)
Launch site: Rocket Lab Launch Complex (RLLC)
aabbcc
Your satellite tracking list
Your tracking list is empty




NASA's NSSDC Master Catalog

Two Line Element Set (TLE):
1 46956U 20085AD  21331.64960896  .00009817  00000-0  38827-3 0  9999
2 46956  97.4129 106.0456 0014301  81.0008 279.2854 15.25576289 56606
Source of the keplerian elements: AFSPC